Weather History for KTBR - October, 2012

Change the Weather History Date:

Saturday, October 27, 2012

  Actual Average (KSAV) Record (KSAV)
Temperature  
Mean Temperature 68 °F 65 °F  
Max Temperature 73 °F 76 °F 90 °F (2014)
Min Temperature 64 °F 54 °F 32 °F (1962)
Degree Days  
Heating Degree Days 0 3  
Month to date heating degree days 43  
Since 1 July heating degree days 45  
Cooling Degree Days 4 3  
Month to date cooling degree days 138  
Year to date cooling degree days 2404  
Growing Degree Days 18 (Base 50)    
Moisture  
Dew Point 60 °F    
Average Humidity 73    
Maximum Humidity 88    
Minimum Humidity 60    
Precipitation  
Precipitation 0.00 in 0.08 in 2.22 in (1888)
Month to date precipitation 3.37  
Year to date precipitation 42.32  
Sea Level Pressure  
Sea Level Pressure 29.70 in    
Wind  
Wind Speed 10 mph (North)    
Max Wind Speed 16 mph    
Max Gust Speed 25 mph    
Visibility 10 miles    
Events      
T = Trace of Precipitation, MM = Missing Value Source: NWS Daily Summary

Daily Weather History Graph

Daily Weather History Graph

Search for Another Location

Airport or City:

Trip Planner

Search our weather history database for the weather conditions in past years. The results will help you decide how hot, cold, wet, or windy it might be!

Date:

Astronomy

Oct. 27, 2012 Rise Set
Actual Time 7:40 AM EDT 6:40 PM EDT
Civil Twilight 7:15 AM EDT 7:05 PM EDT
Nautical Twilight 6:46 AM EDT 7:34 PM EDT
Astronomical Twilight 6:17 AM EDT 8:03 PM EDT
Moon 5:22 PM EDT (10/27) 5:39 AM EDT (10/27)
Length of Visible Light 11h 50m
Length of Day
11h 00m
Waxing Gibbous, 96% of the Moon is Illuminated
Oct 27
Waxing Gibbous
Oct 29
Full
Nov 6
Last Quarter
Nov 13
New
Nov 20
First Quarter

Hourly Weather History & Observations

Time (EDT) Temp. Dew Point Humidity Pressure Visibility Wind Dir Wind Speed Gust Speed Precip Events Conditions
12:15 AM 68.0 °F 59.0 °F 73% 29.82 in 10.0 mi North 6.9 mph - N/A   Clear
12:35 AM 68.0 °F 59.0 °F 73% 29.81 in 10.0 mi North 8.1 mph - N/A   Clear
12:55 AM 66.2 °F 59.0 °F 78% 29.80 in 10.0 mi North 8.1 mph - N/A   Clear
1:15 AM 66.2 °F 60.8 °F 83% 29.79 in 10.0 mi North 9.2 mph - N/A   Clear
1:35 AM 66.2 °F 60.8 °F 83% 29.78 in 10.0 mi North 12.7 mph - N/A   Clear
1:55 AM 66.2 °F 60.8 °F 83% 29.77 in 10.0 mi North 11.5 mph 16.1 mph N/A   Clear
2:15 AM 66.2 °F 60.8 °F 83% 29.76 in 10.0 mi North 12.7 mph 16.1 mph N/A   Clear
2:35 AM 66.2 °F 60.8 °F 83% 29.75 in 10.0 mi North 9.2 mph - N/A   Clear
2:55 AM 66.2 °F 60.8 °F 83% 29.74 in 10.0 mi North 11.5 mph 16.1 mph N/A   Clear
3:15 AM 66.2 °F 60.8 °F 83% 29.75 in 10.0 mi North 9.2 mph - N/A   Scattered Clouds
3:35 AM 66.2 °F 60.8 °F 83% 29.74 in 10.0 mi North 8.1 mph - N/A   Mostly Cloudy
3:55 AM 64.4 °F 60.8 °F 88% 29.73 in 10.0 mi North 10.4 mph 16.1 mph N/A   Overcast
4:15 AM 66.2 °F 60.8 °F 83% 29.72 in 10.0 mi North 10.4 mph - N/A   Overcast
4:35 AM 66.2 °F 60.8 °F 83% 29.72 in 10.0 mi North 11.5 mph 16.1 mph N/A   Overcast
4:55 AM 66.2 °F 60.8 °F 83% 29.71 in 10.0 mi North 11.5 mph 18.4 mph N/A   Overcast
5:15 AM 66.2 °F 60.8 °F 83% 29.71 in 10.0 mi North 11.5 mph 18.4 mph N/A   Overcast
5:35 AM 66.2 °F 60.8 °F 83% 29.71 in 10.0 mi North 11.5 mph 18.4 mph N/A   Overcast
5:55 AM 66.2 °F 60.8 °F 83% 29.71 in 10.0 mi North 11.5 mph 17.3 mph N/A   Overcast
6:15 AM 66.2 °F 60.8 °F 83% 29.71 in 10.0 mi North 12.7 mph 18.4 mph N/A   Overcast
6:35 AM 66.2 °F 60.8 °F 83% 29.71 in 10.0 mi North 13.8 mph 20.7 mph N/A   Overcast
6:55 AM 64.4 °F 60.8 °F 88% 29.72 in 10.0 mi North 8.1 mph - N/A   Overcast
7:15 AM 64.4 °F 60.8 °F 88% 29.72 in 10.0 mi North 11.5 mph - N/A   Overcast
7:35 AM 64.4 °F 60.8 °F 88% 29.72 in 10.0 mi North 9.2 mph - N/A   Overcast
7:55 AM 64.4 °F 60.8 °F 88% 29.73 in 10.0 mi North 11.5 mph - N/A   Overcast
8:15 AM 64.4 °F 60.8 °F 88% 29.73 in 10.0 mi North 10.4 mph - N/A   Overcast
8:55 AM 66.2 °F 60.8 °F 83% 29.74 in 10.0 mi North 8.1 mph - N/A   Overcast
9:15 AM 66.2 °F 60.8 °F 83% 29.74 in 10.0 mi North 10.4 mph 17.3 mph N/A   Overcast
9:35 AM 68.0 °F 60.8 °F 78% 29.74 in 10.0 mi North 13.8 mph 20.7 mph N/A   Overcast
9:55 AM 68.0 °F 60.8 °F 78% 29.74 in 10.0 mi North 12.7 mph 18.4 mph N/A   Overcast
10:15 AM 68.0 °F 60.8 °F 78% 29.74 in 10.0 mi North 12.7 mph 17.3 mph N/A   Overcast
10:35 AM 68.0 °F 60.8 °F 78% 29.74 in 10.0 mi North 15.0 mph 20.7 mph N/A   Overcast
10:55 AM 69.8 °F 60.8 °F 73% 29.73 in 10.0 mi North 13.8 mph 23.0 mph N/A   Overcast
11:15 AM 69.8 °F 60.8 °F 73% 29.73 in 10.0 mi North 13.8 mph 21.9 mph N/A   Overcast
11:35 AM 69.8 °F 60.8 °F 73% 29.73 in 10.0 mi North 12.7 mph 23.0 mph N/A   Overcast
11:55 AM 71.6 °F 60.8 °F 69% 29.73 in 10.0 mi North 11.5 mph 19.6 mph N/A   Mostly Cloudy
12:15 PM 71.6 °F 60.8 °F 69% 29.72 in 10.0 mi North 16.1 mph 20.7 mph N/A   Scattered Clouds
12:35 PM 71.6 °F 60.8 °F 69% 29.70 in 10.0 mi North 15.0 mph 25.3 mph N/A   Scattered Clouds
1:15 PM 73.4 °F 59.0 °F 61% 29.69 in 10.0 mi North 12.7 mph 23.0 mph N/A   Scattered Clouds
1:35 PM 73.4 °F 59.0 °F 61% 29.68 in 10.0 mi North 12.7 mph 21.9 mph N/A   Scattered Clouds
1:55 PM 73.4 °F 59.0 °F 61% 29.67 in 10.0 mi North 13.8 mph 21.9 mph N/A   Scattered Clouds
2:15 PM 73.4 °F 59.0 °F 61% 29.66 in 10.0 mi North 16.1 mph 20.7 mph N/A   Scattered Clouds
2:35 PM 73.4 °F 59.0 °F 61% 29.65 in 10.0 mi North 10.4 mph 18.4 mph N/A   Scattered Clouds
2:55 PM 73.4 °F 59.0 °F 61% 29.65 in 10.0 mi North 12.7 mph 20.7 mph N/A   Scattered Clouds
3:15 PM 73.4 °F 59.0 °F 61% 29.65 in 10.0 mi North 11.5 mph 19.6 mph N/A   Clear
3:35 PM 73.4 °F 59.0 °F 61% 29.64 in 10.0 mi North 11.5 mph 21.9 mph N/A   Scattered Clouds
3:55 PM 73.4 °F 59.0 °F 61% 29.64 in 10.0 mi North 13.8 mph 21.9 mph N/A   Scattered Clouds
4:15 PM 73.4 °F 59.0 °F 61% 29.64 in 10.0 mi North 12.7 mph 18.4 mph N/A   Scattered Clouds
4:35 PM 73.4 °F 59.0 °F 61% 29.64 in 10.0 mi North 12.7 mph 19.6 mph N/A   Scattered Clouds
4:55 PM 73.4 °F 59.0 °F 61% 29.64 in 10.0 mi North 10.4 mph 19.6 mph N/A   Clear
5:15 PM 73.4 °F 59.0 °F 61% 29.64 in 10.0 mi North 13.8 mph 17.3 mph N/A   Scattered Clouds
5:35 PM 71.6 °F 59.0 °F 64% 29.64 in 10.0 mi North 9.2 mph - N/A   Mostly Cloudy
5:55 PM 71.6 °F 59.0 °F 64% 29.64 in 10.0 mi North 6.9 mph - N/A   Mostly Cloudy
6:15 PM 71.6 °F 59.0 °F 64% 29.64 in 10.0 mi North 8.1 mph - N/A   Scattered Clouds
6:35 PM 71.6 °F 59.0 °F 64% 29.65 in 10.0 mi North 6.9 mph - N/A   Scattered Clouds
6:55 PM 71.6 °F 59.0 °F 64% 29.65 in 10.0 mi NNW 9.2 mph - N/A   Mostly Cloudy
7:15 PM 71.6 °F 59.0 °F 64% 29.66 in 10.0 mi NNW 5.8 mph - N/A   Overcast
7:35 PM 71.6 °F 59.0 °F 64% 29.66 in 10.0 mi NNW 8.1 mph - N/A   Overcast
7:55 PM 71.6 °F 59.0 °F 64% 29.66 in 10.0 mi NNW 8.1 mph - N/A   Overcast
8:15 PM 71.6 °F 57.2 °F 60% 29.67 in 10.0 mi NNW 8.1 mph - N/A   Overcast
8:35 PM 71.6 °F 59.0 °F 64% 29.67 in 10.0 mi NNW 8.1 mph - N/A   Overcast
8:55 PM 69.8 °F 59.0 °F 68% 29.67 in 10.0 mi NNW 9.2 mph - N/A   Overcast
9:15 PM 69.8 °F 59.0 °F 68% 29.67 in 10.0 mi North 8.1 mph - N/A   Mostly Cloudy
9:35 PM 69.8 °F 59.0 °F 68% 29.67 in 10.0 mi NNW 9.2 mph - N/A   Scattered Clouds
9:55 PM 69.8 °F 59.0 °F 68% 29.68 in 10.0 mi North 6.9 mph - N/A   Clear
10:15 PM 68.0 °F 59.0 °F 73% 29.68 in 10.0 mi NNW 6.9 mph - N/A   Clear
10:55 PM 68.0 °F 59.0 °F 73% 29.69 in 10.0 mi NNW 8.1 mph - N/A   Clear
11:15 PM 68.0 °F 57.2 °F 68% 29.69 in 10.0 mi NNW 8.1 mph - N/A   Clear
11:35 PM 68.0 °F 57.2 °F 68% 29.69 in 10.0 mi NNW 8.1 mph - N/A   Clear
11:55 PM 68.0 °F 57.2 °F 68% 29.69 in 10.0 mi NNW 6.9 mph - N/A   Clear